Wind_Speed
6 6 3 2 4 4 3 8 3 2 2 5 2 12 9 5 3 3 18 18 34 34 35 35 34 32 31 29 26 25 22 23 24 25 26 27 26 25 25 26 26 26 27 28 28 27 27 26 27
3 3 1 2 4 3 5 6 2 2 4 5 6 4 7 6 5 10 12 26 36 36 33 34 34 35 31 28 27 26 23 23 24 25 26 26 24 24 25 27 26 27 26 26 27 29 28 28 29
3 3 2 3 4 5 6 1 2 5 4 3 4 5 4 3 6 13 14 32 31 30 31 33 34 33 30 29 27 26 24 24 24 25 25 24 23 24 25 26 25 25 24 24 25 26 27 26 27
2 4 3 2 5 8 1 1 5 5 3 5 4 8 5 9 13 12 33 34 30 25 30 32 32 32 30 28 28 26 25 24 24 24 24 23 23 24 25 24 24 22 21 21 22 23 26 24 23
0 3 1 2 3 6 6 2 3 6 5 6 3 4 5 8 29 28 25 26 24 25 29 29 30 28 28 28 27 26 25 24 23 23 23 22 24 25 24 22 21 20 18 19 18 18 20 23 23
3 3 2 3 4 6 3 5 4 2 4 4 7 6 5 9 24 24 20 33 27 22 25 24 26 27 24 26 26 25 22 22 23 23 22 23 23 23 22 20 18 17 16 15 15 16 17 16 19
4 3 2 3 5 1 5 3 2 5 2 3 4 5 5 14 21 33 33 38 32 24 16 35 34 32 27 13 16 17 19 21 22 22 22 22 22 21 19 18 16 14 14 15 15 16 15 15 10
4 3 2 2 3 3 6 9 7 2 4 3 2 5 5 6 28 35 37 35 28 27 31 35 44 34 22 15 15 16 18 21 23 22 22 21 19 17 14 14 13 12 13 14 13 11 10 12 12
5 2 3 2 4 4 7 6 4 5 4 5 2 4 18 24 28 36 35 33 29 26 32 38 33 26 18 22 18 18 18 20 21 22 21 20 19 16 13 11 10 9 9 9 8 8 9 9 10
4 3 7 5 1 3 3 9 6 1 4 6 13 22 27 25 15 21 21 22 26 30 30 31 26 28 23 21 20 20 21 22 22 20 18 16 15 12 10 10 9 6 6 4 6 8 10 11 13
4 5 4 3 4 8 5 3 4 3 4 3 20 21 21 27 11 6 11 19 30 30 26 34 28 22 27 25 22 20 21 20 17 15 14 15 14 10 10 11 12 11 10 13 12 13 11 11 11
2 8 6 7 7 4 6 7 5 5 5 10 18 19 23 21 15 12 11 15 17 24 28 29 26 26 24 23 24 21 19 15 13 16 19 18 19 16 13 11 10 11 10 9 7 8 8 8 10
6 10 9 12 10 4 8 4 3 5 6 9 17 17 21 22 29 21 17 18 17 17 25 23 24 27 26 25 23 20 19 20 17 19 18 15 13 12 11 12 11 10 7 7 5 5 7 8 7
5 9 1 11 10 4 7 3 4 2 5 8 6 11 20 21 24 16 19 22 23 22 23 24 26 26 24 22 18 20 20 20 19 18 15 13 12 12 10 9 8 6 7 8 7 6 5 6 7
7 4 7 5 8 5 9 3 5 10 9 12 7 9 18 24 28 27 27 24 27 28 30 30 28 24 23 23 25 26 24 20 17 16 14 13 11 10 10 9 8 7 5 5 6 6 4 5 9
4 4 4 5 8 4 4 5 4 13 11 9 8 6 12 16 28 27 28 28 33 35 32 27 29 32 32 28 24 23 20 16 14 13 13 15 15 13 11 8 8 6 5 6 5 5 7 8 9
5 0 2 6 7 4 4 2 6 7 10 9 8 9 11 14 19 27 29 34 39 36 32 28 36 32 29 25 20 16 16 14 19 20 20 18 15 12 10 8 8 5 4 4 7 9 10 8 6
1 4 2 4 6 5 5 3 7 5 10 11 9 7 12 18 18 30 30 34 41 37 34 31 33 30 26 22 19 18 22 22 21 20 18 16 13 12 8 7 5 4 4 6 9 11 9 9 10
5 2 5 5 4 4 8 10 9 9 10 8 7 10 9 16 19 32 34 35 38 36 37 35 33 29 26 24 26 26 24 22 20 18 16 15 12 9 5 2 2 5 6 7 9 7 9 10 6
4 6 8 7 9 4 7 9 3 4 14 13 12 11 17 11 14 24 30 32 38 40 36 36 32 29 27 23 27 26 26 23 20 18 16 13 12 8 4 2 3 3 4 3 4 6 7 5 3
5 3 4 5 4 6 8 4 3 4 4 1 6 11 15 16 20 19 29 34 34 35 39 38 36 31 28 25 28 27 27 22 21 19 16 14 10 7 4 5 3 2 4 4 4 4 1 4 5
6 12 6 2 4 4 2 3 5 5 7 12 14 8 9 8 17 17 25 27 32 37 43 41 38 35 30 27 31 35 32 27 26 23 21 17 11 8 6 3 1 4 4 4 4 4 3 4 3
10 7 2 1 5 4 0 5 7 0 8 12 13 17 15 13 18 18 27 34 35 39 41 42 38 32 33 33 35 38 32 29 28 25 21 15 11 7 4 1 2 4 5 4 3 6 6 5 2
3 2 5 5 4 3 7 5 5 5 14 9 7 17 18 16 11 9 24 28 28 33 33 30 32 30 34 36 39 41 36 30 29 25 19 14 11 7 4 2 5 5 4 2 1 4 5 3 2
4 5 3 3 4 4 4 2 8 8 11 15 10 9 17 15 11 14 15 24 25 29 32 31 32 31 33 34 36 39 35 35 29 23 17 14 12 8 4 2 3 4 1 1 5 7 5 4 4
5 7 5 4 3 4 3 5 6 7 9 11 6 8 7 12 14 15 17 24 28 32 36 36 37 34 30 31 31 33 32 27 21 16 13 12 9 5 4 4 5 5 3 4 7 8 6 7 7
3 2 3 6 3 1 3 5 8 7 7 2 7 8 8 8 9 12 15 23 27 32 36 39 37 35 33 30 29 27 23 20 17 14 11 9 6 3 1 2 5 6 6 6 6 9 10 10 10
3 3 3 3 4 2 4 5 4 2 3 5 4 8 8 8 8 9 14 19 23 31 39 39 38 36 32 29 26 25 22 18 16 13 10 8 4 2 2 3 5 7 8 9 8 6 6 7 9
4 3 1 4 4 4 1 5 5 5 7 8 11 9 9 11 13 13 15 25 31 31 35 39 38 36 34 31 29 27 24 21 18 15 14 6 5 1 3 4 7 8 8 9 9 6 8 7 6
2 6 5 5 4 0 4 5 4 8 5 6 8 8 8 10 13 15 20 25 28 33 37 41 40 39 39 36 36 32 27 24 21 17 13 11 7 5 5 5 8 9 10 11 8 8 8 8 7
Wind_Direction
260 243 220 77 66 71 262 258 214 274 81 326 25 93 113 46 38 166 139 182 158 153 158 155 150 148 146 143 135 130 127 121 117 116 114 112 110 107 106 104 101 96 90 84 76 69 68 66 61
255 178 89 90 100 104 262 264 244 301 151 158 69 76 51 82 74 121 130 155 156 156 157 154 149 144 146 141 135 130 128 123 119 118 116 113 111 111 111 109 107 101 94 88 78 70 67 65 62
206 160 90 141 132 173 227 312 221 323 359 151 122 62 75 82 116 139 153 155 159 151 152 151 148 143 144 139 136 130 129 123 124 120 119 115 115 115 115 115 113 106 100 90 80 72 67 67 62
138 42 9 108 233 262 232 76 226 173 344 28 111 66 64 10 155 166 156 161 155 154 156 151 145 147 144 141 135 131 131 128 126 124 121 120 119 118 120 119 116 109 100 90 80 73 71 68 61
128 74 31 257 320 279 234 290 33 353 352 356 337 81 66 36 116 126 140 141 140 146 148 146 147 147 143 140 133 134 132 130 127 128 123 123 124 123 123 120 118 111 99 87 78 73 69 69 58
11 90 48 17 290 304 49 344 101 347 342 336 60 70 67 72 109 112 118 117 122 124 135 139 139 141 135 134 135 127 131 129 130 128 128 124 124 122 121 118 110 99 87 76 71 68 64 69 61
123 74 222 280 278 328 10 15 205 158 7 279 111 90 103 84 107 113 105 129 135 131 96 91 93 101 110 104 112 130 132 133 133 132 130 128 125 122 118 112 101 92 84 81 77 76 66 64 74
127 110 321 300 353 2 323 352 341 73 196 138 30 124 116 118 115 116 122 128 135 125 111 102 94 102 117 154 156 139 144 139 136 133 131 127 120 113 112 105 97 92 88 80 78 75 74 55 56
144 57 267 262 179 208 199 88 312 309 87 49 53 89 125 127 121 121 128 136 140 139 133 118 117 153 165 170 157 150 148 140 134 132 130 119 115 104 107 107 100 88 96 87 65 68 83 75 75
119 159 235 212 132 158 277 140 171 228 104 77 92 108 119 119 131 128 145 153 150 139 148 153 146 162 165 168 161 156 150 140 137 132 128 125 124 115 113 108 99 92 82 74 55 110 91 91 82
200 206 216 214 167 183 192 230 124 124 353 182 136 131 129 110 117 144 153 159 150 145 147 149 153 167 172 168 158 152 148 142 135 135 130 137 138 135 125 121 108 102 103 111 109 99 86 73 60
235 241 212 180 176 205 167 132 123 160 216 99 145 140 127 120 133 195 174 162 166 154 151 164 166 171 175 163 152 152 152 148 134 143 143 133 135 129 127 126 118 114 114 109 97 78 69 66 72
208 254 244 172 178 217 83 43 25 65 120 114 130 137 136 150 168 178 171 172 176 184 171 175 179 174 171 168 162 160 157 142 142 150 152 158 152 145 137 124 122 108 92 79 68 55 62 65 56
289 250 203 165 166 199 143 126 21 16 115 112 157 140 150 165 171 166 167 173 180 179 189 188 179 174 171 166 168 172 161 154 152 155 161 163 155 146 136 132 122 92 76 72 59 53 53 61 49
295 207 76 119 165 156 98 38 229 167 153 150 154 151 159 168 175 173 176 181 181 182 179 183 186 184 187 169 150 147 157 157 158 157 158 153 147 149 153 132 101 92 74 74 79 74 43 20 8
26 46 107 245 147 159 136 188 229 148 153 163 158 166 151 156 175 177 180 177 177 175 177 168 176 169 163 160 153 155 158 158 157 155 154 142 140 143 134 115 88 79 73 82 40 7 6 6 1
2 155 163 170 143 118 100 171 242 158 160 157 160 174 151 156 168 174 176 175 174 175 176 166 166 166 164 158 156 161 160 164 147 140 135 137 137 137 129 110 104 92 63 29 10 359 354 2 16
331 247 284 173 225 119 137 191 188 153 138 141 147 153 154 163 172 173 174 173 176 179 180 172 171 168 165 159 158 154 148 146 142 136 135 133 137 133 139 111 89 45 355 343 334 334 342 346 336
288 26 325 311 252 112 188 173 185 166 146 134 154 152 145 168 174 172 171 174 175 178 175 178 176 170 167 161 155 152 151 146 143 150 144 143 136 136 141 138 288 302 316 328 328 330 330 329 318
12 7 314 287 259 133 145 168 171 196 171 169 172 176 175 162 167 176 175 176 177 176 182 182 180 172 174 174 168 166 163 161 158 155 144 139 145 160 177 234 263 283 293 306 316 323 320 311 359
324 262 278 245 63 40 94 58 202 195 175 161 256 210 182 178 177 176 179 179 175 174 180 184 185 184 185 181 170 168 166 160 158 159 153 159 174 183 210 200 207 272 309 325 316 331 299 290 84
305 273 217 291 78 157 155 203 256 201 226 196 210 223 234 198 187 177 176 180 177 179 185 190 193 193 192 188 181 180 177 169 171 165 162 161 173 185 200 215 272 322 337 323 332 343 315 191 168
256 275 214 220 83 87 296 100 251 22 213 213 210 208 219 232 195 176 182 182 183 181 187 193 194 200 200 192 192 189 187 180 168 163 160 164 166 168 158 171 336 0 360 11 73 94 85 80 73
267 69 54 41 79 36 292 139 283 216 228 246 183 207 215 223 199 181 183 176 182 185 190 191 195 201 207 205 199 196 189 178 164 163 169 168 169 160 146 52 15 17 20 90 60 41 355 343 329
95 56 351 12 22 213 273 129 231 230 242 235 219 186 208 195 160 164 159 173 177 185 186 187 190 185 187 190 190 189 184 174 172 174 177 165 153 144 109 32 60 18 37 283 323 347 345 334 307
233 149 155 219 190 249 284 228 248 236 253 233 191 153 140 165 167 163 164 171 172 179 180 178 175 177 180 181 183 184 172 171 175 174 167 160 157 152 116 23 359 38 16 317 312 318 313 311 294
326 145 170 103 10 31 240 262 304 2 358 124 114 132 155 176 165 164 167 171 173 172 176 177 174 174 175 170 168 171 174 173 172 165 163 158 148 126 1 2 350 355 328 328 324 293 310 300 280
134 232 54 14 135 252 284 296 246 344 274 258 206 187 177 175 166 167 170 171 174 175 175 177 180 176 171 169 173 176 178 176 173 169 164 163 162 173 349 340 332 323 326 323 335 304 294 286 285
337 310 90 121 141 167 195 270 224 220 227 224 240 212 194 184 183 179 174 175 177 175 174 176 180 180 180 185 186 183 177 180 181 182 175 202 188 281 320 312 316 312 315 299 300 301 308 290 256
179 241 165 123 237 139 151 269 240 228 214 221 239 221 202 188 188 181 178 173 174 176 178 183 187 192 197 195 185 182 181 183 184 185 189 189 200 241 267 271 306 300 293 297 259 288 291 273 232
Height
794 796 796 799 824 832 830 810 785 781 778 769 763 768 779 781 789 803 793 794 800 802 804 806 807 814 818 822 826 829 834 835 835 836 836 836 840 843 845 847 850 850 849 851 852 853 851 851 853
793 795 798 805 832 840 828 794 785 779 770 766 768 771 777 787 785 790 794 798 797 801 807 808 810 810 820 824 826 829 835 836 837 839 839 839 842 844 847 848 851 851 852 853 854 855 854 854 855
793 795 804 814 835 834 822 787 787 783 769 766 771 770 778 791 790 792 793 798 802 804 808 810 813 815 822 824 828 830 836 836 838 838 840 842 844 846 848 849 852 852 855 855 856 857 856 855 857
793 797 806 818 819 804 797 785 779 776 768 767 771 786 782 789 789 790 794 798 802 808 811 814 814 817 822 826 829 832 834 837 838 839 840 844 846 848 850 853 853 855 856 857 858 859 858 858 858
794 803 820 821 815 797 780 777 783 794 785 780 773 790 794 796 792 796 801 805 809 813 817 816 819 821 824 829 830 833 834 837 838 841 842 845 847 848 850 853 855 856 858 858 859 861 861 860 861
804 808 823 830 809 784 784 783 782 790 789 781 784 792 803 803 800 803 805 804 813 817 818 820 819 823 829 833 835 833 836 837 840 842 845 848 850 851 853 856 858 859 860 861 862 862 862 862 863
806 816 821 811 800 790 787 787 791 786 789 791 784 800 806 807 808 808 811 807 814 821 817 817 822 828 832 836 835 839 840 841 842 844 847 849 851 853 856 857 859 861 862 863 863 863 864 864 863
799 809 809 801 809 811 796 791 789 784 789 782 782 800 807 810 811 812 814 819 821 822 819 824 823 830 834 843 843 842 844 843 843 845 850 852 854 855 858 859 861 863 863 864 865 865 863 864 863
790 814 819 801 799 796 788 790 785 783 788 787 792 795 803 810 812 814 815 818 820 825 827 828 829 836 840 844 843 843 845 847 847 850 852 853 855 857 860 861 862 864 864 865 865 865 865 863 863
796 813 803 786 782 788 786 778 783 788 790 799 801 803 805 808 818 815 816 817 817 822 828 825 828 833 837 843 843 844 846 847 849 851 854 855 857 859 860 861 862 863 864 864 865 865 865 864 864
790 800 786 782 778 779 782 782 781 786 798 793 801 806 810 807 820 823 819 817 816 821 827 829 831 833 838 839 841 844 848 850 851 853 856 856 856 859 860 860 862 864 863 864 865 865 865 865 865
791 778 777 782 776 780 781 780 790 788 789 791 800 802 808 813 821 819 821 822 822 825 827 833 833 833 837 839 840 845 848 851 851 854 855 856 857 860 860 860 862 863 865 864 866 865 866 865 865
785 773 768 773 776 777 775 784 786 794 790 793 798 803 810 813 813 817 823 826 828 829 829 831 833 835 838 839 841 844 849 850 851 853 854 855 857 859 859 861 862 864 864 865 864 864 865 864 864
770 766 764 770 774 775 780 786 788 793 792 797 799 800 810 814 815 821 824 826 828 830 832 833 834 838 839 842 842 846 849 848 850 852 852 855 856 858 859 862 862 863 865 863 862 863 863 863 863
768 772 772 775 777 780 779 796 798 793 795 798 799 802 805 811 814 815 818 823 825 828 831 831 834 838 840 841 843 845 847 848 850 851 853 854 856 856 860 862 862 863 862 862 863 864 863 862 862
779 779 796 778 775 777 781 805 786 792 795 799 799 802 805 809 812 814 817 821 824 827 829 831 834 837 840 841 844 846 848 849 849 850 853 852 854 857 860 862 860 861 861 862 862 863 862 861 862
790 799 787 783 768 775 785 802 788 785 791 797 799 799 802 808 813 814 815 816 820 824 827 829 833 836 838 841 845 846 847 848 849 850 851 853 854 857 860 860 860 860 861 861 862 863 863 862 861
797 792 787 788 774 776 789 795 789 789 793 797 799 799 799 803 808 811 814 816 817 822 826 829 833 834 838 839 844 846 848 849 849 849 852 854 855 857 859 858 859 860 860 862 863 864 862 861 861
782 786 788 783 772 780 792 794 794 793 792 798 798 797 801 801 804 807 811 815 818 823 825 827 830 833 835 838 841 845 845 847 849 850 852 854 854 856 857 857 858 859 860 862 862 862 862 862 861
783 787 792 781 769 775 793 793 794 796 787 790 793 795 792 799 803 806 809 812 815 818 824 828 830 832 835 837 838 839 844 848 849 851 851 851 853 855 856 857 858 859 860 861 861 861 861 861 860
787 788 788 788 775 779 787 802 796 795 791 791 791 784 783 789 795 800 804 806 811 815 819 824 828 831 834 836 838 841 845 846 848 849 849 851 853 854 855 856 857 859 859 859 859 859 859 859 859
800 773 780 778 788 806 786 827 804 792 795 787 785 789 789 785 788 793 800 806 805 808 813 818 823 827 830 832 835 837 838 840 843 846 848 851 853 854 855 856 857 858 858 857 856 855 856 856 857
788 774 775 775 793 798 796 814 799 796 791 787 780 779 782 783 780 786 791 795 799 804 808 812 818 824 828 829 831 833 836 838 841 846 849 851 853 854 855 856 856 855 855 857 856 853 854 856 857
766 772 784 791 803 832 807 810 814 801 778 768 773 771 776 777 784 788 789 794 801 805 807 812 814 818 822 824 826 829 832 836 841 845 848 850 851 853 854 855 855 855 854 854 855 853 855 855 854
771 793 819 820 841 839 799 806 800 775 771 764 765 768 767 773 780 786 787 793 799 802 805 809 811 815 819 822 824 827 831 835 840 845 847 849 851 853 854 853 852 852 853 853 854 852 854 855 854
779 791 825 827 845 821 805 814 788 759 752 753 756 764 769 772 775 778 783 788 794 797 802 804 807 813 818 821 823 829 833 838 842 845 847 849 851 851 851 854 853 850 852 852 852 852 851 852 851
778 793 785 819 831 829 813 785 772 759 759 755 763 767 770 771 772 776 781 784 787 793 797 799 805 809 815 820 825 830 835 836 839 842 845 847 850 851 850 850 852 850 852 850 849 851 851 850 851
772 774 799 816 825 826 809 801 795 767 762 761 765 768 768 770 773 776 779 782 787 789 793 797 803 807 814 819 823 827 831 834 837 840 843 846 846 848 848 847 848 849 849 849 846 848 848 847 847
784 787 786 798 820 826 835 811 774 767 762 763 762 762 763 766 768 771 774 777 781 787 791 793 798 802 808 812 817 821 825 828 832 835 837 842 845 844 845 846 846 846 845 846 843 844 845 844 843
767 780 787 824 806 829 833 809 763 762 757 759 761 759 759 760 763 765 767 772 777 780 784 787 791 794 797 801 808 813 818 822 827 831 834 836 838 839 841 843 843 843 843 844 842 842 841 841 841